カタログに戻る

STARLINK-31034

運用中通信VLEO
NORAD 58785·PAYLOAD·🇺🇸 United States

打ち上げ Jan 14, 2024 から Vandenberg Space Force Base

Loading…

次のパス (今後24時間)

TLE

最新Source: CelesTrak SupGP

元期: Sep 15, 2026, 01:53 UTC

1 58785C 24011W   26258.07895833  .00038731  00000+0  11444-2 0  2582
2 58785  53.1573 107.3996 0001193  80.2766  27.2973 15.34370259    17

AllMySatでSTARLINK-31034をリアルタイム追跡

Download on the App Store